H1 CPF 2 NER 2021 4 24 9 114 01 glonass122 H2 1004103 9122 37139 2021 4 24 0 0 0 2021 4 27 23 45 0 900 1 1 0 0 0 1 H9 10 0 59328 0.00000 0 2910876.559 15782492.081 19756671.330 10 0 59328 900.00000 0 1025867.670 14087639.859 21183417.414 10 0 59328 1800.00000 0 -1094401.956 12441157.551 22196478.939 10 0 59328 2700.00000 0 -3407741.946 10896548.292 22776497.729 10 0 59328 3600.00000 0 -5862588.119 9499556.439 22912628.339 10 0 59328 4500.00000 0 -8399944.004 8286363.655 22602715.160 10 0 59328 5400.00000 0 -10955636.461 7282212.998 21853296.133 10 0 59328 6300.00000 0 -13462789.807 6500515.697 20679436.006 10 0 59328 7200.00000 0 -15854414.389 5942474.069 19104395.371 10 0 59328 8100.00000 0 -18066001.979 5597232.022 17159144.691 10 0 59328 9000.00000 0 -20038021.117 5442542.442 14881735.119 10 0 59328 9900.00000 0 -21718210.561 5445919.549 12316540.202 10 0 59328 10800.00000 0 -23063578.310 5566224.588 9513384.396 10 0 59328 11700.00000 0 -24042026.342 5755616.029 6526575.783 10 0 59328 12600.00000 0 -24633536.974 5961781.153 3413861.736 10 0 59328 13500.00000 0 -24830874.880 6130355.167 235326.927 10 0 59328 14400.00000 0 -24639778.572 6207427.007 -2947746.318 10 0 59328 15300.00000 0 -24078635.596 6142028.109 -6074035.030 10 0 59328 16200.00000 0 -23177656.440 5888501.580 -9083329.821 10 0 59328 17100.00000 0 -21977581.947 5408654.305 -11917666.505 10 0 59328 18000.00000 0 -20527977.451 4673603.495 -14522415.700 10 0 59328 18900.00000 0 -18885183.216 3665241.356 -16847311.939 10 0 59328 19800.00000 0 -17110004.230 2377256.763 -18847404.672 10 0 59328 20700.00000 0 -15265232.894 815670.412 -20483914.664 10 0 59328 21600.00000 0 -13413104.870 -1001140.917 -21724980.591 10 0 59328 22500.00000 0 -11612791.326 -3042935.041 -22546282.136 10 0 59328 23400.00000 0 -9918029.898 -5268593.401 -22931527.358 10 0 59328 24300.00000 0 -8374991.623 -7627571.711 -22872794.062 10 0 59328 25200.00000 0 -7020472.279 -10061756.504 -22370716.831 10 0 59328 26100.00000 0 -5880484.160 -12507654.637 -21434513.658 10 0 59328 27000.00000 0 -4969308.551 -14898828.384 -20081848.722 10 0 59328 27900.00000 0 -4289050.696 -17168477.459 -18338530.608 10 0 59328 28800.00000 0 -3829718.612 -19252061.765 -16238048.469 10 0 59328 29700.00000 0 -3569825.107 -21089855.571 -13820951.967 10 0 59328 30600.00000 0 -3477490.123 -22629325.185 -11134084.310 10 0 59328 31500.00000 0 -3511998.698 -23827228.226 -8229681.496 10 0 59328 32400.00000 0 -3625749.499 -24651343.411 -5164354.271 10 0 59328 33300.00000 0 -3766511.150 -25081754.753 -1997972.752 10 0 59328 34200.00000 0 -3879889.159 -25111632.773 1207523.325 10 0 59328 35100.00000 0 -3911896.175 -24747477.095 4389363.370 10 0 59328 36000.00000 0 -3811512.948 -24008808.337 7485206.680 10 0 59328 36900.00000 0 -3533127.271 -22927321.652 10434397.044 10 0 59328 37800.00000 0 -3038743.310 -21545538.274 13179183.165 10 0 59328 38700.00000 0 -2299863.828 -19915013.704 15665877.719 10 0 59328 39600.00000 0 -1298962.549 -18094180.875 17845929.404 10 0 59328 40500.00000 0 -30482.324 -16145922.417 19676884.936 10 0 59328 41400.00000 0 1498684.057 -14134977.579 21123220.988 10 0 59328 42300.00000 0 3269250.363 -12125295.893 22157029.503 10 0 59328 43200.00000 0 5250127.227 -10177450.940 22758543.792 10 0 59328 44100.00000 0 7399519.546 -8346223.812 22916496.762 10 0 59328 45000.00000 0 9666482.583 -6678457.465 22628306.508 10 0 59328 45900.00000 0 11992869.337 -5211270.258 21900088.498 10 0 59328 46800.00000 0 14315585.759 -3970700.731 20746497.049 10 0 59328 47700.00000 0 16569058.251 -2970836.658 19190402.219 10 0 59328 48600.00000 0 18687809.976 -2213460.438 17262411.174 10 0 59328 49500.00000 0 20609039.039 -1688221.010 15000245.694 10 0 59328 50400.00000 0 22275092.417 -1373320.717 12447989.830 10 0 59328 51300.00000 0 23635734.778 -1236684.342 9655223.532 10 0 59328 52200.00000 0 24650120.563 -1237558.218 6676059.617 10 0 59328 53100.00000 0 25288390.295 -1328470.268 3568102.739 10 0 59328 54000.00000 0 25532827.902 -1457467.734 391349.747 10 0 59328 54900.00000 0 25378533.815 -1570538.713 -2792948.589 10 0 59328 55800.00000 0 24833588.197 -1614116.845 -5923444.181 10 0 59328 56700.00000 0 23918699.168 -1537565.599 -8939846.429 10 0 59328 57600.00000 0 22666351.315 -1295539.820 -11784055.378 10 0 59328 58500.00000 0 21119489.665 -850127.393 -14401253.790 10 0 59328 59400.00000 0 19329792.564 -172682.724 -16740939.623 10 0 59328 60300.00000 0 17355603.179 754723.984 -18757881.260 10 0 59328 61200.00000 0 15259602.964 1938302.466 -20412978.917 10 0 59328 62100.00000 0 13106320.749 3372026.399 -21674016.972 10 0 59328 63000.00000 0 10959577.957 5037629.634 -22516293.430 10 0 59328 63900.00000 0 8879973.518 6905118.144 -22923114.220 10 0 59328 64800.00000 0 6922511.006 8933780.480 -22886141.947 10 0 59328 65700.00000 0 5134465.496 11073659.181 -22405590.657 10 0 59328 66600.00000 0 3553578.837 13267426.307 -21490260.443 10 0 59328 67500.00000 0 2206659.321 15452589.069 -20157408.285 10 0 59328 68400.00000 0 1108645.834 17563936.880 -18432454.299 10 0 59328 69300.00000 0 262177.957 19536129.827 -16348525.712 10 0 59328 70200.00000 0 -342307.452 21306321.222 -13945844.234 10 0 59328 71100.00000 0 -725954.766 22816703.987 -11270965.981 10 0 59328 72000.00000 0 -920367.310 24016872.251 -8375886.848 10 0 59328 72900.00000 0 -966030.442 24865896.219 -5317029.728 10 0 59328 73800.00000 0 -910346.482 25334019.649 -2154133.306 10 0 59328 74700.00000 0 -805365.664 25403904.767 1050934.659 10 0 59328 75600.00000 0 -705311.477 25071368.870 4235414.373 10 0 59328 76500.00000 0 -664008.503 24345578.919 7336914.352 10 0 59328 77400.00000 0 -732325.731 23248694.359 10294666.984 10 0 59328 78300.00000 0 -955747.949 21814972.933 13050751.280 10 0 59328 79200.00000 0 -1372182.244 20089378.128 15551255.514 10 0 59328 80100.00000 0 -2010095.938 18125748.990 17747354.073 10 0 59328 81000.00000 0 -2887067.401 15984612.225 19596275.290 10 0 59328 81900.00000 0 -4008812.467 13730731.719 21062140.120 10 0 59328 82800.00000 0 -5368727.818 11430501.630 22116654.918 10 0 59328 83700.00000 0 -6947969.831 9149294.951 22739645.517 10 0 59328 84600.00000 0 -8716063.907 6948880.267 22919423.763 10 0 59328 85500.00000 0 -10632016.388 4885015.401 22652981.577 10 0 59329 0.00000 0 -12645879.959 3005317.666 21946011.576 10 0 59329 900.00000 0 -14700704.788 1347497.710 20812756.678 10 0 59329 1800.00000 0 -16734791.470 -61972.968 19275694.977 10 0 59329 2700.00000 0 -18684150.864 -1208708.256 17365068.369 10 0 59329 3600.00000 0 -20485067.689 -2090738.081 15118266.844 10 0 59329 4500.00000 0 -22076661.380 -2718313.219 12579082.147 10 0 59329 5400.00000 0 -23403339.024 -3113197.423 9796846.632 10 0 59329 6300.00000 0 -24417040.306 -3307480.107 6825474.573 10 0 59329 7200.00000 0 -25079183.545 -3341962.178 3722424.519 10 0 59329 8100.00000 0 -25362234.693 -3264184.462 547602.109 10 0 59329 9000.00000 0 -25250836.732 -3126182.103 -2637776.765 10 0 59329 9900.00000 0 -24742454.835 -2982058.740 -5772342.116 10 0 59329 10800.00000 0 -23847512.255 -2885481.093 -8795725.206 10 0 59329 11700.00000 0 -22589012.141 -2887197.308 -11649693.193 10 0 59329 12600.00000 0 -21001661.027 -3032681.212 -14279243.638 10 0 59329 13500.00000 0 -19130529.387 -3359999.407 -16633640.286 10 0 59329 14400.00000 0 -17029302.970 -3897989.302 -18667372.437 10 0 59329 15300.00000 0 -14758194.932 -4664823.820 -20341021.281 10 0 59329 16200.00000 0 -12381602.309 -5667023.326 -21622017.883 10 0 59329 17100.00000 0 -9965600.773 -6898957.729 -22485278.960 10 0 59329 18000.00000 0 -7575378.626 -8342862.164 -22913708.089 10 0 59329 18900.00000 0 -5272713.868 -9969369.241 -22898551.845 10 0 59329 19800.00000 0 -3113597.263 -11738539.882 -22439602.355 10 0 59329 20700.00000 0 -1146099.370 -13601354.144 -21545239.939 10 0 59329 21600.00000 0 591429.652 -15501604.161 -20232312.103 10 0 59329 22500.00000 0 2071751.350 -17378113.875 -18525847.903 10 0 59329 23400.00000 0 3279661.404 -19167195.468 -16458609.824 10 0 59329 24300.00000 0 4212402.257 -20805241.261 -14070488.659 10 0 59329 25200.00000 0 4879546.160 -22231342.595 -11407750.402 10 0 59329 26100.00000 0 5302351.230 -23389824.519 -8522147.827 10 0 59329 27000.00000 0 5512616.093 -24232587.360 -5469913.015 10 0 59329 27900.00000 0 5551080.716 -24721153.316 -2310650.389 10 0 59329 28800.00000 0 5465441.467 -24828328.055 893846.945 10 0 59329 29700.00000 0 5308066.037 -24539403.518 4080832.479 10 0 59329 30600.00000 0 5133507.807 -23852847.898 7187866.222 10 0 59329 31500.00000 0 4995928.524 -22780451.291 10154071.216 10 0 59329 32400.00000 0 4946542.680 -21346919.645 12921358.568 10 0 59329 33300.00000 0 5031196.031 -19588934.156 15435593.676 10 0 59329 34200.00000 0 5288184.586 -17553716.996 17647677.823 10 0 59329 35100.00000 0 5746409.414 -15297165.977 19514521.837 10 0 59329 36000.00000 0 6423947.285 -12881639.358 20999891.478 10 0 59329 36900.00000 0 7327098.294 -10373486.897 22075107.657 10 0 59329 37800.00000 0 8449950.288 -7840433.385 22719588.513 10 0 59329 38700.00000 0 9774477.053 -5348926.251 22921224.282 10 0 59329 39600.00000 0 11271163.957 -2961559.284 22676579.858 10 0 59329 40500.00000 0 12900132.166 -734679.891 21990923.861 10 0 59329 41400.00000 0 14612711.648 1283721.706 20878086.600 10 0 59329 42300.00000 0 16353394.590 3055755.888 19360152.712 10 0 59329 43200.00000 0 18062085.680 4554940.652 17466997.282 10 0 59329 44100.00000 0 19676554.103 5767022.122 15235676.860 10 0 59329 45000.00000 0 21134984.596 6690278.953 12709689.162 10 0 59329 45900.00000 0 22378521.796 7335302.648 9938117.126 10 0 59329 46800.00000 0 23353703.219 7724267.188 6974674.552 10 0 59329 47700.00000 0 24014681.499 7889721.975 3876671.871 10 0 59329 48600.00000 0 24325145.765 7872961.133 703921.387 10 0 59329 49500.00000 0 24259864.654 7722038.868 -2482398.081 10 0 59329 50400.00000 0 23805789.033 7489514.351 -5620896.870 10 0 59329 51300.00000 0 22962670.402 7230019.964 -8651130.288 10 0 59329 52200.00000 0 21743170.299 6997753.470 -11514734.721 10 0 59329 53100.00000 0 20172456.444 6843997.302 -14156524.493 10 0 59329 54000.00000 0 18287301.574 6814766.973 -16525530.933 10 0 59329 54900.00000 0 16134720.677 6948685.391 -18575965.881 10 0 59329 55800.00000 0 13770200.652 7275170.924 -20268092.945 10 0 59329 56700.00000 0 11255592.674 7813014.786 -21568991.158 10 0 59329 57600.00000 0 8656751.117 8569407.996 -22453197.063 10 0 59329 58500.00000 0 6041013.516 9539460.451 -22903212.807 10 0 59329 59400.00000 0 3474622.902 10706235.072 -22909869.640 10 0 59329 60300.00000 0 1020196.887 12041299.324 -22472538.190 10 0 59329 61200.00000 0 -1265652.930 13505775.202 -21599179.083 10 0 59329 62100.00000 0 -3334452.937 15051848.097 -20306230.049 10 0 59329 63000.00000 0 -5147661.678 16624675.406 -18618328.352 10 0 59329 63900.00000 0 -6678049.947 18164618.162 -16567870.573 10 0 59329 64800.00000 0 -7910607.079 19609704.293 -14194415.023 10 0 59329 65700.00000 0 -8842933.078 20898220.989 -11543935.618 10 0 59329 66600.00000 0 -9485097.577 21971326.589 -8667939.729 10 0 59329 67500.00000 0 -9858969.614 22775570.238 -5622466.060 10 0 59329 68400.00000 0 -9997045.188 23265210.124 -2466982.001 10 0 59329 69300.00000 0 -9940821.881 23404228.842 736796.934 10 0 59329 70200.00000 0 -9738790.253 23167956.827 3926140.538 10 0 59329 71100.00000 0 -9444129.168 22544231.561 7038563.365 10 0 59329 72000.00000 0 -9112205.810 21534040.493 10013082.121 10 0 59329 72900.00000 0 -8797990.110 20151618.451 12791442.932 10 0 59329 73800.00000 0 -8553497.275 18423994.539 15319291.084 10 0 59329 74700.00000 0 -8425370.641 16390007.996 17547257.318 10 0 59329 75600.00000 0 -8452710.522 14098835.963 19431937.257 10 0 59329 76500.00000 0 -8665243.317 11608097.301 20936743.455 10 0 59329 77400.00000 0 -9081909.491 8981614.909 22032613.022 10 0 59329 78300.00000 0 -9709930.074 6286933.077 22698557.632 10 0 59329 79200.00000 0 -10544389.973 3592696.103 22922046.690 10 0 59329 80100.00000 0 -11568353.571 965999.342 22699218.354 10 0 59329 81000.00000 0 -12753505.102 -1530176.267 22034917.029 10 0 59329 81900.00000 0 -14061283.982 -3839339.991 20942559.587 10 0 59329 82800.00000 0 -15444464.553 -5913580.292 19443835.906 10 0 59329 83700.00000 0 -16849111.589 -7715283.089 17568252.411 10 0 59329 84600.00000 0 -18216827.905 -9218411.705 15352529.895 10 0 59329 85500.00000 0 -19487199.031 -10409299.562 12839869.327 10 0 59330 0.00000 0 -20600332.728 -11286927.336 10079101.265 10 0 59330 900.00000 0 -21499387.882 -11862677.374 7123735.664 10 0 59330 1800.00000 0 -22132989.266 -12159579.803 4030931.509 10 0 59330 2700.00000 0 -22457428.295 -12211084.372 860404.344 10 0 59330 3600.00000 0 -22438561.669 -12059412.143 -2326707.489 10 0 59330 4500.00000 0 -22053329.897 -11753556.395 -5468997.980 10 0 59330 5400.00000 0 -21290834.879 -11347016.598 -8505949.707 10 0 59330 6300.00000 0 -20152932.772 -10895359.257 -11379071.330 10 0 59330 7200.00000 0 -18654317.970 -10453706.094 -14032996.793 10 0 59330 8100.00000 0 -16822094.231 -10074252.733 -16416527.592 10 0 59330 9000.00000 0 -14694849.210 -9803919.739 -18483600.341 10 0 59330 9900.00000 0 -12321268.503 -9682232.653 -20194162.857 10 0 59330 10800.00000 0 -9758343.492 -9739518.728 -21514943.403 10 0 59330 11700.00000 0 -7069243.644 -9995495.717 -22420099.018 10 0 59330 12600.00000 0 -4320937.707 -10458312.662 -22891730.457 10 0 59330 13500.00000 0 -1581658.724 -11124084.856 -22920253.049 10 0 59330 14400.00000 0 1081685.162 -11976945.368 -22504614.739 10 0 59330 15300.00000 0 3606048.948 -12989614.678 -21652354.746 10 0 59330 16200.00000 0 5934633.959 -14124468.574 -20379498.854 10 0 59330 17100.00000 0 8019017.103 -15335063.619 -18710289.994 10 0 59330 18000.00000 0 9820936.544 -16568059.677 -16676755.994 10 0 59330 18900.00000 0 11313657.541 -17765461.439 -14318119.586 10 0 59330 19800.00000 0 12482858.996 -18867086.221 -11680059.321 10 0 59330 20700.00000 0 13327000.882 -19813154.229 -8813833.740 10 0 59330 21600.00000 0 13857154.793 -20546890.883 -5775284.675 10 0 59330 22500.00000 0 14096302.917 -21017028.909 -2623738.974 10 0 59330 23400.00000 0 14078134.101 -21180101.075 579168.857 10 0 59330 24300.00000 0 13845388.117 -21002422.717 3770728.184 10 0 59330 25200.00000 0 13447819.614 -20461676.211 6888411.115 10 0 59330 26100.00000 0 12939870.464 -19548026.744 9871130.699 10 0 59330 27000.00000 0 12378152.509 -18264719.462 12660470.352 10 0 59330 27900.00000 0 11818851.209 -16628130.953 15201857.061 10 0 59330 28800.00000 0 11315164.105 -14667272.472 17445652.350 10 0 59330 29700.00000 0 10914886.068 -12422766.479 19348137.438 10 0 59330 30600.00000 0 10658246.260 -9945341.166 20872371.970 10 0 59330 31500.00000 0 10576089.924 -7293908.667 21988909.033 10 0 59330 32400.00000 0 10688482.244 -4533310.053 22676353.145 10 0 59330 33300.00000 0 11003792.408 -1731823.999 22921751.758 10 0 59330 34200.00000 0 11518294.649 1041454.809 22720814.787 10 0 59330 35100.00000 0 12216300.354 3719257.070 22077960.618 10 0 59330 36000.00000 0 13070812.586 6238690.063 21006190.639 10 0 59330 36900.00000 0 14044672.199 8543593.504 19526797.761 10 0 59330 37800.00000 0 15092144.453 10586604.438 17668917.438 10 0 59330 38700.00000 0 16160877.081 12330848.568 15468932.346 10 0 59330 39600.00000 0 17194146.023 13751191.636 12969744.326 10 0 59330 40500.00000 0 18133293.978 14835003.242 10219929.059 10 0 59330 41400.00000 0 18920259.777 15582405.773 7272790.556 10 0 59330 42300.00000 0 19500093.715 16006002.137 4185333.938 10 0 59330 43200.00000 0 19823355.264 16130097.201 1017175.747 10 0 59330 44100.00000 0 19848294.989 15989448.033 -2170588.310 10 0 59330 45000.00000 0 19542731.683 15627596.660 -5316537.902 10 0 59330 45900.00000 0 18885548.354 15094855.518 -8360084.741 10 0 59330 46800.00000 0 17867746.130 14446029.298 -11242611.433 10 0 59330 47700.00000 0 16493012.919 13737967.052 -13908572.996 10 0 59330 48600.00000 0 14777782.985 13027045.017 -16306542.331 10 0 59330 49500.00000 0 12750783.742 12366683.260 -18390181.862 10 0 59330 50400.00000 0 10452086.452 11804997.906 -20119124.502 10 0 59330 51300.00000 0 7931697.189 11382685.519 -21459748.490 10 0 59330 52200.00000 0 5247742.791 11131227.182 -22385832.005 10 0 59330 53100.00000 0 2464323.043 11071487.466 -22879074.934 10 0 59330 54000.00000 0 -350885.929 11212767.953 -22929477.059 10 0 59330 54900.00000 0 -3129181.397 11552357.047 -22535563.807 10 0 59330 55800.00000 0 -5803434.024 12075597.895 -21704452.880 10 0 59330 56700.00000 0 -8310632.218 12756475.128 -20451757.660 10 0 59330 57600.00000 0 -10594265.989 13558699.616 -18801325.913 10 0 59330 58500.00000 0 -12606450.719 14437249.251 -16784815.486 10 0 59330 59400.00000 0 -14309700.950 15340303.999 -14441111.932 10 0 59330 60300.00000 0 -15678277.946 16211495.734 -11815596.519 10 0 59330 61200.00000 0 -16699051.878 16992378.812 -8959276.777 10 0 59330 62100.00000 0 -17371839.791 17625016.498 -5927795.279 10 0 59330 63000.00000 0 -17709202.829 18054572.080 -2780335.800 10 0 59330 63900.00000 0 -17735709.631 18231792.057 421550.800 10 0 59330 64800.00000 0 -17486696.514 18115272.547 3615176.157 10 0 59330 65700.00000 0 -17006577.458 17673408.846 6737972.673 10 0 59330 66600.00000 0 -16346777.269 16885941.648 9728752.488 10 0 59330 67500.00000 0 -15563378.239 15745031.099 12528939.033 10 0 59330 68400.00000 0 -14714583.499 14255810.762 15083743.637 10 0 59330 69300.00000 0 -13858108.301 12436396.830 17343261.106 10 0 59330 70200.00000 0 -13048613.239 10317352.015 19263460.548 10 0 59330 71100.00000 0 -12335291.075 7940627.666 20807050.704 10 0 59330 72000.00000 0 -11759711.189 5358030.440 21944202.304 10 0 59330 72900.00000 0 -11354013.609 2629280.185 22653113.973 10 0 59330 73800.00000 0 -11139528.420 -180257.212 22920412.018 10 0 59330 74700.00000 0 -11125877.160 -3002064.996 22741378.437 10 0 59330 75600.00000 0 -11310591.492 -5767093.098 22120005.417 10 0 59330 76500.00000 0 -11679261.900 -8408388.403 21068878.175 10 0 59330 77400.00000 0 -12206206.591 -10863628.590 19608891.465 10 0 59330 78300.00000 0 -12855628.927 -13077455.767 17768808.100 10 0 59330 79200.00000 0 -13583211.661 -15003515.496 15584670.561 10 0 59330 80100.00000 0 -14338078.597 -16606119.790 13099079.113 10 0 59330 81000.00000 0 -15065039.779 -17861469.026 10360351.894 10 0 59330 81900.00000 0 -15707025.470 -18758386.175 7421583.922 10 0 59330 82800.00000 0 -16207607.158 -19298536.900 4339623.453 10 0 59330 83700.00000 0 -16513501.126 -19496130.063 1173984.912 10 0 59330 84600.00000 0 -16576951.401 -19377114.116 -2014281.755 10 0 59330 85500.00000 0 -16357894.432 -18977904.841 -5163744.998 10 0 59331 0.00000 0 -15825816.971 -18343698.593 -8213748.648 10 0 59331 900.00000 0 -14961230.832 -17526441.322 -11105552.355 10 0 59331 1800.00000 0 -13756705.248 -16582537.143 -13783434.994 10 0 59331 2700.00000 0 -12217411.952 -15570390.617 -16195743.537 10 0 59331 3600.00000 0 -10361161.573 -14547882.828 -18295868.638 10 0 59331 4500.00000 0 -8217926.649 -13569884.674 -20043130.376 10 0 59331 5400.00000 0 -5828868.888 -12685908.954 -21403558.624 10 0 59331 6300.00000 0 -3244907.218 -11937997.784 -22350553.842 10 0 59331 7200.00000 0 -524882.078 -11358932.847 -22865415.657 10 0 59331 8100.00000 0 2266612.293 -10970843.456 -22937728.351 10 0 59331 9000.00000 0 5061641.820 -10784271.849 -22565594.327 10 0 59331 9900.00000 0 7791496.112 -10797737.023 -21755708.756 10 0 59331 10800.00000 0 10389297.876 -10997818.287 -20523271.138 10 0 59331 11700.00000 0 12792551.334 -11359758.419 -18891732.160 10 0 59331 12600.00000 0 14945523.876 -11848564.532 -16892377.374 10 0 59331 13500.00000 0 16801360.828 -12420563.462 -14563752.455 10 0 59331 14400.00000 0 18323843.178 -13025348.503 -11950938.317 10 0 59331 15300.00000 0 19488712.026 -13608036.678 -9104688.059 10 0 59331 16200.00000 0 20284501.369 -14111741.213 -6080441.300 10 0 59331 17100.00000 0 20712841.450 -14480153.368 -2937234.836 10 0 59331 18000.00000 0 20788217.652 -14660121.803 263468.120 10 0 59331 18900.00000 0 20537193.808 -14604116.793 3459005.420 10 0 59331 19800.00000 0 19997132.582 -14272470.795 6586773.524 10 0 59331 20700.00000 0 19214468.046 -13635296.335 9585487.092 10 0 59331 21600.00000 0 18242605.723 -12673996.107 12396412.541 10 0 59331 22500.00000 0 17139542.027 -11382298.301 14964547.981 10 0 59331 23400.00000 0 15965307.372 -9766771.319 17239723.342 10 0 59331 24300.00000 0 14779344.774 -7846795.254 19177596.859 10 0 59331 25200.00000 0 13637937.957 -5653991.531 20740526.989 10 0 59331 26100.00000 0 12591800.107 -3231136.039 21898302.141 10 0 59331 27000.00000 0 11683926.348 -630603.331 22628714.518 10 0 59331 27900.00000 0 10947800.588 2087590.634 22917968.239 10 0 59331 28800.00000 0 10406031.090 4858062.915 22760915.878 10 0 59331 29700.00000 0 10069469.863 7612558.393 22161121.500 10 0 59331 30600.00000 0 9936849.623 10282559.749 21130751.884 10 0 59331 31500.00000 0 9994949.866 12801903.617 19690301.090 10 0 59331 32400.00000 0 10219281.037 15109294.918 17868156.566 10 0 59331 33300.00000 0 10575254.337 17150616.704 15700017.726 10 0 59331 34200.00000 0 11019784.835 18880942.158 13228180.348 10 0 59331 35100.00000 0 11503258.175 20266168.660 10500702.089 10 0 59331 36000.00000 0 11971776.881 21284209.843 7570466.074 10 0 59331 36900.00000 0 12369591.565 21925699.968 4494160.873 10 0 59331 37800.00000 0 12641615.540 22194185.078 1331196.101 10 0 59331 38700.00000 0 12735918.624 22105796.113 -1857426.577 10 0 59331 39600.00000 0 12606097.411 21688419.957 -5010266.696 10 0 59331 40500.00000 0 12213424.677 20980404.360 -8066602.352 10 0 59331 41400.00000 0 11528689.784 20028851.078 -10967571.714 10 0 59331 42300.00000 0 10533654.541 18887567.747 -13657279.043 10 0 59331 43200.00000 0 9222064.337 17614762.419 -16083846.502 10 0 59331 44100.00000 0 7600172.028 16270574.733 -18200393.817 10 0 59331 45000.00000 0 5686751.444 14914544.265 -19965928.867 10 0 59331 45900.00000 0 3512597.510 13603119.157 -21346133.615 10 0 59331 46800.00000 0 1119530.404 12387306.805 -22314031.136 10 0 59331 47700.00000 0 -1441058.865 11310563.153 -22850520.990 10 0 59331 48600.00000 0 -4110065.511 10407008.032 -22944772.002 10 0 59331 49500.00000 0 -6822858.052 9700041.418 -22594463.391 10 0 59331 50400.00000 0 -9511708.605 9201419.811 -21805867.369 10 0 59331 51300.00000 0 -12108368.758 8910833.574 -20593768.804 10 0 59331 52200.00000 0 -14546686.269 8816005.783 -18981220.188 10 0 59331 53100.00000 0 -16765154.558 8893311.590 -16999133.303 10 0 59331 54000.00000 0 -18709288.544 9108895.099 -14685712.134 10 0 59331 54900.00000 0 -20333726.121 9420239.287 -12085735.157 10 0 59331 55800.00000 0 -21603964.922 9778124.425 -9249698.761 10 0 59331 56700.00000 0 -22497658.588 10128892.856 -6232837.177 10 0 59331 57600.00000 0 -23005415.003 10416923.583 -3094037.718 10 0 59331 58500.00000 0 -23131060.058 10587209.927 105326.607 10 0 59331 59400.00000 0 -22891353.784 10587927.946 3302622.463 10 0 59331 60300.00000 0 -22315169.833 10372882.894 6435212.965 10 0 59331 61200.00000 0 -21442173.130 9903725.811 9441717.904 10 0 59331 62100.00000 0 -20321053.059 9151842.201 12263249.262 10 0 59331 63000.00000 0 -19007389.307 8099829.201 14844594.435 10 0 59331 63900.00000 0 -17561243.814 6742496.071 17135320.838 10 0 59331 64800.00000 0 -16044584.113 5087344.103 19090777.970 10 0 59331 65700.00000 0 -14518650.202 3154505.234 20672975.849 10 0 59331 66600.00000 0 -13041378.882 976142.651 21851322.039 10 0 59331 67500.00000 0 -11664995.948 -1404659.901 22603203.384 10 0 59331 68400.00000 0 -10433878.227 -3935471.439 22914402.428 10 0 59331 69300.00000 0 -9382774.801 -6556481.432 22779342.475 10 0 59331 70200.00000 0 -8535460.185 -9202777.483 22201159.163 10 0 59331 71100.00000 0 -7903873.029 -11806836.353 21191600.092 10 0 59331 72000.00000 0 -7487772.735 -14301123.561 19770757.468 10 0 59331 72900.00000 0 -7274924.157 -16620693.418 17966641.825 10 0 59331 73800.00000 0 -7241798.384 -18705682.471 15814607.628 10 0 59331 74700.00000 0 -7354756.358 -20503594.586 13356643.980 10 0 59331 75600.00000 0 -7571662.399 -21971285.567 10640545.657 10 0 59331 76500.00000 0 -7843857.657 -23076568.168 7718981.319 10 0 59331 77400.00000 0 -8118409.369 -23799374.356 4648477.193 10 0 59331 78300.00000 0 -8340541.274 -24132430.087 1488335.354 10 0 59331 79200.00000 0 -8456143.864 -24081417.726 -1700493.544 10 0 59331 80100.00000 0 -8414260.558 -23664621.875 -4856562.853 10 0 59331 81000.00000 0 -8169447.347 -22912075.078 -7919087.606 10 0 59331 81900.00000 0 -7683908.895 -21864239.669 -10829087.315 10 0 59331 82800.00000 0 -6929323.366 -20570280.362 -13530494.230 10 0 59331 83700.00000 0 -5888280.673 -19085998.301 -15971208.276 10 0 59331 84600.00000 0 -4555274.273 -17471510.588 -18104080.676 10 0 59331 85500.00000 0 -2937204.397 -15788769.441 -19887809.301 99